Location: Asheville, NC
(35.6000°N, 82.5500°W)
Time: 00:19:39
(UTC-04:00)

Vanguard 1 Rocket - Pass Details

Date: 14 February 2018
Orbit: 652 x 4225 km, 34.3° (Epoch: 20 May)

Event Time Altitude Azimuth Distance (km) Brightness Sun altitude
Exits shadow 05:38:20 24° 279° (W) 5,893 10.8 -20.8°
Maximum altitude 05:54:51 72° 204° (SSW) 3,117 9.9 -17.5°
Drops below altitude 10° 06:07:58 10° 122° (ESE) 4,367 11.9 -14.8°
Sets 06:10:37 0° 120° (ESE) 5,020 12.5 -14.3°
